[[{"header":{"parameterUnit":"m.s-1","parameterCategory":2,"la1":30.2991,"la2":30.254,"lo1":-89.0895,"lo2":-89.0444,"dy":0.0017,"dx":0.0017,"nx":28,"ny":28,"refTime":"2023-07-30T09:00:00:Z","depth":"0","parameterNumber":2,"parameterNumberName":"U-component_of_CURRENTS"},"data":[0,0,0,0,0,0,0,0,0,0,0,0,0,0,0,0,0,0,0,0,0,0,0,0,0,0,0,0,0,0,0,0,0,0,0,0,0,0,0,0,0,0,0,0,0,0,0,0,0,0,0,0,0,0,0,0,0,0,0.3046,0.3047,0,0.3096,0.3096,0.3095,0.3053,0.3052,0.3051,0.305,0.2906,0.2903,0.29,0,0,0,0,0,0,0,0,0,0,0,0,0,0.2847,0.285,0.3046,0.3047,0.3049,0.3096,0.3096,0.3095,0.3053,0.3052,0.3051,0.305,0.2907,0.2904,0.29,0,0,0,0,0,0,0,0,0,0,0,0,0,0.291,0.2851,0.3046,0.304,0.3041,0.3096,0.3096,0.3095,0.3054,0.3052,0.3051,0.3049,0.2908,0.2904,0.29,0.29,0,0,0.2886,0.2884,0,0,0,0,0,0,0,0,0.2907,0.2916,0.304,0.3041,0.3042,0.3075,0.2973,0.3024,0.3054,0.3039,0.305,0.3049,0.2952,0.2944,0.2946,0.2893,0.2887,0.2886,0.2883,0.2881,0.288,0,0,0,0,0,0,0,0.2902,0.2914,0.3056,0.3042,0.3043,0.3013,0.302,0.2982,0.2992,0.304,0.304,0.306,0.2949,0.295,0.2942,0.2885,0.2886,0.2882,0.2879,0.2877,0.2908,0.2911,0,0,0,0,0,0,0.2921,0.2911,0.3055,0.3059,0.298,0.3018,0.3026,0.3058,0.2996,0.299,0.3061,0.3058,0.2959,0.2947,0.2936,0.2989,0.2881,0.2877,0.2874,0.2905,0.2909,0.2913,0,0,0,0,0,0,0.2916,0.2933,0.3053,0.2991,0.3006,0.3025,0.306,0.306,0.3071,0.3016,0.3004,0.3074,0.2957,0.2943,0.294,0.2981,0.2875,0.2871,0.29,0.2906,0.2911,0.3058,0,0,0,0,0,0,0.291,0.2932,0.2955,0.2994,0.3011,0.3105,0.3063,0.3062,0.3089,0.3085,0.3023,0.3008,0.2955,0.2947,0.2935,0.2973,0.2867,0.2896,0.2903,0.2909,0.3049,0.3068,0.3084,0,0,0,0,0,0.2903,0.2957,0.2956,0.2973,0.3044,0.3108,0.3113,0.3114,0.3092,0.3113,0.3083,0.3011,0.298,0.2947,0.2932,0.2969,0.2893,0.2901,0.2908,0.3041,0.3064,0.3084,0,0,0,0,0,0,0.288,0.296,0.2959,0.3032,0.3072,0.3105,0.3135,0.3129,0.3124,0.3116,0.3046,0.3031,0.3053,0.2998,0.2963,0.3004,0.2928,0.2933,0.3034,0.3055,0.3072,0.3049,0.2864,0,0,0,0,0,0.289,0.2954,0.3007,0.3066,0.3092,0.3111,0.3135,0.314,0.3148,0.3145,0.3109,0.3079,0.3076,0.3054,0.304,0.3046,0.3019,0.3066,0.3084,0.3099,0.3075,0.3141,0.3162,0.2938,0.2938,0.2938,0,0,0.2901,0.2952,0.2988,0.3066,0.3094,0.3144,0.312,0.3176,0.3204,0.3128,0.315,0.314,0.3098,0.3124,0.3126,0.3076,0.315,0.3109,0.3122,0.3088,0.3151,0.3173,0.3192,0.2944,0.2943,0.2942,0,0,0.296,0.3,0.3067,0.3107,0.317,0.3184,0.3206,0.3248,0.3252,0.3285,0.3253,0.3272,0.3245,0.3236,0.3224,0.3327,0.3255,0.3327,0.3372,0.344,0.3458,0.3473,0.3465,0.3479,0.332,0.332,0.332,0,0.2962,0.3049,0.3093,0.3157,0.3185,0.3207,0.3256,0.3282,0.3313,0.3314,0.3309,0.3325,0.33,0.3326,0.3371,0.3363,0.3364,0.3293,0.3461,0.3476,0.349,0.3477,0.349,0.3328,0.3327,0.3326,0.3326,0,0.3063,0.3121,0.3168,0.3247,0.3281,0.3339,0.3374,0.34,0.3407,0.342,0.3462,0.3462,0.3454,0.3481,0.3449,0.3532,0.3491,0.3492,0.3403,0.3521,0.35,0.3511,0.334,0.3337,0.3334,0.3332,0,0,0.3072,0.3212,0.322,0.3252,0.3326,0.3362,0.3413,0.3453,0.3465,0.3519,0.354,0.3588,0.3581,0.3569,0.3558,0.3614,0.3725,0.3592,0.3592,0.3572,0.3829,0.357,0.3555,0.377,0.3773,0.3776,0.3775,0,0.312,0.3256,0.3294,0.3373,0.3432,0.3443,0.3475,0.3508,0.3529,0.356,0.3591,0.3613,0.3618,0.3618,0.369,0.3712,0.3761,0.3721,0.3725,0.3722,0.347,0.3562,0.3304,0.3261,0.3785,0.3787,0.3788,0,0.3175,0.3259,0.3365,0.3422,0.344,0.3468,0.3488,0.3525,0.3566,0.358,0.3622,0.3635,0.3702,0.3706,0.381,0.3787,0.3814,0.384,0.3841,0.3542,0.3482,0.323,0.326,0.3123,0.3804,0.3802,0.3801,0,0.3156,0.3277,0.3358,0.3389,0.3475,0.3475,0.3491,0.3522,0.3539,0.3585,0.3596,0.3678,0.3701,0.3793,0.3828,0.3837,0.3932,0.3948,0.3735,0.3715,0.3456,0.3405,0.3332,0.4035,0.4035,0.4035,0.4035,0,0.3183,0.3231,0.3352,0.3395,0.3428,0.347,0.3481,0.35,0.3534,0.3547,0.3599,0.3615,0.3736,0.3788,0.3844,0.3788,0.3945,0.3728,0.3704,0.3496,0.3452,0.3284,0.3279,0.4035,0.4035,0.4035,0.4035,0,0.3151,0.3248,0.3323,0.3413,0.3429,0.3443,0.3468,0.3476,0.3504,0.3522,0.3533,0.3593,0.3624,0.3699,0.3809,0.3746,0.3608,0.3707,0.3399,0.3336,0.2927,0.2941,0.276,0.271,0.3443,0.3436,0.3431,0,0.3156,0.321,0.332,0.3349,0.3382,0.3413,0.3422,0.3456,0.3459,0.3491,0.3491,0.3515,0.351,0.3513,0.3417,0.3389,0.3396,0.309,0.3044,0.2839,0.2844,0.2825,0.2801,0.2782,0.2772,0.2764,0.2757,0,0.3148,0.3189,0.3265,0.3336,0.3357,0.3372,0.3382,0.3384,0.3408,0.3411,0.3391,0.3389,0.3286,0.3089,0.2975,0.2936,0.2855,0.2906,0.2824,0.2395,0.2248,0.2207,0.282,0.2682,0.269,0.2695,0.2699,0.2702,0.3127,0.3168,0.3277,0.3313,0.3342,0.3324,0.3283,0.328,0.3269,0.3166,0.3255,0.308,0.2816,0.2585,0.2528,0.2106,0.2321,0.1963,0.2022,0.204,0.1894,0.2268,0.2017,0.202,0.2023,0.2026,0.2028,0,0.3113,0.3184,0.324,0.3293,0.3279,0.3294,0.3252,0.3148,0.3069,0.2933,0.2865,0.2441,0.2149,0.1906,0.1448,0.1257,0.1295,0.1193,0.1169,0.1222,0.1639,0.1505,0.097,0.097,0.0971,0.0971,0.0971,0.0971,0.3129,0.3197,0.3225,0.3223,0.3224,0.3122,0.3056,0.2883,0.2728,0.2331,0.1988,0.1841,0.1512,0.1052,0.0682,0.0654,0.0678,0.0528,0.0714,0.1028,0.1107,0.1183,0.1054,0.0433,0.0433,0.0192,0.019,0.0188]},{"header":{"parameterUnit":"m.s-1","parameterCategory":2,"la1":30.2991,"la2":30.254,"lo1":-89.0895,"lo2":-89.0444,"dy":0.0017,"dx":0.0017,"nx":28,"ny":28,"refTime":"2023-07-30T09:00:00:Z","depth":"0","parameterNumber":3,"parameterNumberName":"V-component_of_CURRENTS"},"data":[0,0,0,0,0,0,0,0,0,0,0,0,0,0,0,0,0,0,0,0,0,0,0,0,0,0,0,0,0,0,0,0,0,0,0,0,0,0,0,0,0,0,0,0,0,0,0,0,0,0,0,0,0,0,0,0,0,0,0.0173,0.0173,0,0.0151,0.0151,0.015,0.013,0.013,0.013,0.013,0.0096,0.0095,0.0094,0,0,0,0,0,0,0,0,0,0,0,0,0,0.018,0.018,0.0173,0.0173,0.0173,0.0151,0.0151,0.015,0.013,0.013,0.013,0.0129,0.0096,0.0095,0.0094,0,0,0,0,0,0,0,0,0,0,0,0,0,0.0168,0.018,0.0173,0.0161,0.016,0.0151,0.0151,0.015,0.013,0.013,0.013,0.0129,0.0096,0.0095,0.0094,0.009,0,0,0.009,0.009,0,0,0,0,0,0,0,0,0.0169,0.0168,0.0163,0.0162,0.0161,0.0145,0.0141,0.013,0.013,0.014,0.013,0.0129,0.0112,0.011,0.0104,0.0089,0.0087,0.009,0.009,0.0089,0.0089,0,0,0,0,0,0,0,0.017,0.0168,0.0163,0.0163,0.0162,0.0151,0.0149,0.0139,0.0126,0.0139,0.0138,0.0138,0.0111,0.0105,0.0103,0.0087,0.009,0.0089,0.0089,0.0088,0.0035,0.0034,0,0,0,0,0,0,0.0177,0.0169,0.0163,0.0162,0.0166,0.0152,0.0149,0.0149,0.0126,0.0123,0.0138,0.0137,0.0107,0.0104,0.0102,0.006,0.0089,0.0088,0.0087,0.0035,0.0035,0.0034,0,0,0,0,0,0,0.0177,0.0176,0.0164,0.0167,0.0165,0.0152,0.0151,0.0148,0.0142,0.0126,0.0122,0.0135,0.0107,0.0103,0.0072,0.006,0.0087,0.0086,0.0036,0.0035,0.0034,-0.0001,0,0,0,0,0,0,0.0177,0.0177,0.0173,0.0167,0.0165,0.0152,0.0151,0.0148,0.0143,0.0141,0.0122,0.0118,0.0107,0.0073,0.0071,0.0058,0.0085,0.0037,0.0036,0.0035,0.0001,-0.0003,-0.0007,0,0,0,0,0,0.0178,0.0171,0.0173,0.0172,0.0162,0.0152,0.0149,0.0138,0.0143,0.0133,0.0112,0.0119,0.0064,0.0071,0.0068,0.0056,0.0038,0.0036,0.0035,0.0002,-0.0003,-0.0007,0,0,0,0,0,0,0.0161,0.0169,0.017,0.0163,0.0156,0.0149,0.0141,0.0141,0.0118,0.0116,0.0103,0.0097,0.0065,0.0067,0.0076,0.0037,0.0055,0.0053,0.0032,0.0027,0.0023,0.0083,0.0084,0,0,0,0,0,0.0161,0.0163,0.0162,0.0155,0.0155,0.0151,0.0145,0.014,0.0125,0.0116,0.0099,0.0082,0.0058,0.0047,0.0027,0.0007,0.0082,-0.0001,-0.0005,-0.0008,0.0039,0.0171,0.0186,0.0029,0.0029,0.0029,0,0,0.0152,0.0156,0.0156,0.0153,0.0149,0.0126,0.0146,0.0138,0.0113,0.0116,0.0073,0.0065,0.0048,0.0014,0.0002,0.0014,0.0059,-0.001,-0.0013,0.0037,0.0172,0.0188,0.0202,0.0028,0.0028,0.0028,0,0,0.013,0.0142,0.0133,0.0123,0.012,0.0114,0.0114,0.0104,0.0097,0.0062,0.0054,0.0056,0.0002,0.0006,-0.0004,-0.0032,0.0032,-0.0058,-0.0026,0.01,0.0116,0.0131,0.0182,0.0202,-0.0056,-0.0056,-0.0057,0,0.0115,0.0102,0.0125,0.0103,0.0094,0.0106,0.0082,0.0069,0.0046,0.0067,0.0041,0.0039,0.001,0.0019,-0.001,-0.0035,0.0029,-0.0013,0.0101,0.0118,0.0134,0.0183,0.0206,-0.0058,-0.0058,-0.0058,-0.0058,0,0.0081,0.0062,0.0055,0.0033,0.0028,0.001,0.0005,0.0006,0.0005,0.0016,0.0036,0.0017,0.0044,0.0006,-0.0023,0.006,0.006,0.0079,0.0123,0.0149,0.0196,0.0221,-0.0061,-0.006,-0.006,-0.0059,0,0,0.0064,0.0036,0.003,0.0024,-0.0007,-0.0,-0.003,-0.0014,0.0029,0.0007,0.0078,0.002,0.0077,0.0074,0.0061,0.0144,0.0256,0.0154,0.0162,0.0222,0.0499,0.0431,0.0451,0.0308,0.0314,0.0318,0.0463,0,0.0024,-0.0019,-0.0024,-0.006,-0.0076,-0.006,-0.0068,-0.0042,-0.0011,0.0058,0.0095,0.0138,0.0079,0.0114,0.0186,0.0261,0.0331,0.0213,0.0453,0.0459,0.0413,0.0483,0.0445,0.0569,0.0488,0.0492,0.0495,0,-0.0012,-0.0031,-0.0074,-0.0063,-0.0061,-0.0074,-0.0009,-0.0012,0.0083,0.0124,0.0205,0.025,0.0341,0.0306,0.0478,0.041,0.0458,0.0505,0.0513,0.0501,0.0442,0.0542,0.0618,0.0594,0.0534,0.0531,0.0528,0,-0.0011,-0.0055,-0.0078,-0.009,-0.0088,-0.0067,-0.0049,0.0024,0.0082,0.0201,0.0289,0.0395,0.0485,0.0587,0.0635,0.0593,0.0841,0.0802,0.0778,0.077,0.0816,0.0804,0.0928,0.0958,0.0958,0.0957,0.0957,0,-0.0044,-0.0055,-0.0071,-0.008,-0.0039,-0.0046,0.0038,0.008,0.0185,0.03,0.0345,0.047,0.0577,0.0701,0.0726,0.0829,0.0921,0.0824,0.0837,0.0787,0.0772,0.0814,0.0801,0.0963,0.0961,0.096,0.096,0,-0.0031,-0.0067,-0.0062,-0.0055,-0.0039,0.0004,0.0094,0.0174,0.0243,0.0403,0.0453,0.0592,0.0748,0.0812,0.0989,0.0953,0.1044,0.1046,0.0931,0.0927,0.0848,0.0833,0.1029,0.1054,0.1069,0.1069,0.1068,0,-0.0025,-0.0035,-0.0015,0.0022,0.0031,0.0092,0.0155,0.0212,0.0303,0.0479,0.0576,0.0746,0.0885,0.1065,0.106,0.1113,0.1089,0.1063,0.0975,0.0879,0.0874,0.0863,0.087,0.0996,0.0995,0.0995,0.0994,0,0.002,0.0024,0.0042,0.01,0.0159,0.0234,0.0316,0.039,0.0482,0.0614,0.0796,0.0915,0.1041,0.1105,0.1114,0.1112,0.1044,0.1046,0.1038,0.0917,0.0838,0.0853,0.0801,0.0988,0.0989,0.0989,0.0989,0.099,0.0088,0.0121,0.0144,0.0206,0.0274,0.0365,0.0439,0.0547,0.0692,0.0885,0.0951,0.1122,0.1114,0.1139,0.1119,0.0994,0.1035,0.094,0.0952,0.0966,0.0938,0.0819,0.0955,0.0955,0.0956,0.0956,0.0956,0,0.0173,0.0196,0.0257,0.0325,0.0407,0.0421,0.0546,0.0633,0.0809,0.099,0.1145,0.1187,0.1193,0.1122,0.0963,0.0904,0.0904,0.088,0.0883,0.0915,0.09,0.0838,0.0846,0.0846,0.0846,0.0846,0.0846,0.0846,0.0226,0.0283,0.0294,0.0419,0.0475,0.0581,0.065,0.0787,0.0918,0.1114,0.1187,0.1237,0.113,0.0975,0.0861,0.0842,0.087,0.0839,0.0894,0.086,0.0866,0.0872,0.0811,0.0813,0.0813,0.09,0.09,0.09]}],[{"header":{"parameterUnit":"m.s-1","parameterCategory":2,"la1":30.2991,"la2":30.254,"lo1":-89.0895,"lo2":-89.0444,"dy":0.0017,"dx":0.0017,"nx":28,"ny":28,"refTime":"2023-07-30T09:00:00:Z","depth":"2","parameterNumber":2,"parameterNumberName":"U-component_of_CURRENTS"},"data":[0,0,0,0,0,0,0,0,0,0,0,0,0,0,0,0,0,0,0,0,0,0,0,0,0,0,0,0,0,0,0,0,0,0,0,0,0,0,0,0,0,0,0,0,0,0,0,0,0,0,0,0,0,0,0,0,0,0,0.1338,0.1338,0,0.1372,0.1373,0.1374,0.1416,0.1416,0.1416,0.1416,0.1412,0.1412,0.1412,0,0,0,0,0,0,0,0,0,0,0,0,0,0.1451,0.1449,0.1338,0.1338,0.1338,0.1372,0.1373,0.1374,0.1416,0.1416,0.1416,0.1416,0.1412,0.1412,0.1412,0,0,0,0,0,0,0,0,0,0,0,0,0,0.1441,0.1448,0.1338,0.1358,0.136,0.1372,0.1373,0.1374,0.1416,0.1416,0.1416,0.1416,0.1412,0.1412,0.1412,0.1408,0,0,0.1411,0.1411,0,0,0,0,0,0,0,0,0.1442,0.1438,0.1355,0.1356,0.1358,0.1384,0.1411,0.1381,0.1416,0.1402,0.1416,0.1416,0.1395,0.1396,0.1412,0.1408,0.1408,0.1411,0.1411,0.1411,0.141,0,0,0,0,0,0,0,0.1442,0.1437,0.1358,0.1355,0.1357,0.1413,0.1411,0.1407,0.1402,0.1403,0.1404,0.1398,0.1396,0.1412,0.1412,0.1408,0.1411,0.1411,0.141,0.141,0.1434,0.1435,0,0,0,0,0,0,0.1416,0.1437,0.1357,0.1359,0.1394,0.141,0.1408,0.1381,0.1403,0.1404,0.1397,0.1399,0.1413,0.1412,0.1412,0.1441,0.1411,0.141,0.141,0.1434,0.1434,0.1435,0,0,0,0,0,0,0.1418,0.1408,0.1356,0.1395,0.1391,0.1406,0.1377,0.1382,0.1404,0.1398,0.14,0.1414,0.1413,0.1412,0.1404,0.144,0.141,0.141,0.1433,0.1434,0.1435,0.1478,0,0,0,0,0,0,0.1421,0.1408,0.1403,0.1392,0.1388,0.1365,0.1376,0.1382,0.1396,0.1399,0.1412,0.1412,0.1413,0.1404,0.1403,0.1439,0.141,0.1432,0.1433,0.1435,0.1476,0.1481,0.1485,0,0,0,0,0,0.1425,0.1397,0.1402,0.1394,0.1371,0.1364,0.1369,0.1385,0.1396,0.1407,0.1407,0.1412,0.1414,0.1403,0.1403,0.1439,0.1431,0.1433,0.1434,0.1474,0.148,0.1485,0,0,0,0,0,0,0.1434,0.1398,0.1403,0.1364,0.1369,0.1369,0.1381,0.1388,0.1402,0.1412,0.1406,0.1405,0.1416,0.1414,0.1402,0.1451,0.143,0.1432,0.1461,0.1466,0.1471,0.1538,0.141,0,0,0,0,0,0.1433,0.1418,0.1392,0.1374,0.137,0.1381,0.1388,0.14,0.1398,0.1407,0.1414,0.1423,0.1424,0.1431,0.1432,0.1448,0.1504,0.1476,0.1481,0.1485,0.1539,0.1691,0.1717,0.1441,0.1441,0.1441,0,0,0.1444,0.1415,0.1415,0.138,0.1389,0.1384,0.1388,0.1398,0.141,0.1401,0.1428,0.1432,0.1427,0.145,0.1457,0.1453,0.157,0.1487,0.1491,0.1544,0.1696,0.1724,0.1749,0.1442,0.1442,0.1442,0,0,0.1443,0.142,0.141,0.1406,0.1403,0.1405,0.1404,0.1412,0.1433,0.1443,0.1448,0.1488,0.147,0.1509,0.1513,0.1547,0.1583,0.153,0.1619,0.1764,0.179,0.1814,0.183,0.1855,0.1542,0.1542,0.1542,0,0.1467,0.1434,0.1413,0.1396,0.1408,0.1408,0.1417,0.1423,0.1436,0.1479,0.1453,0.153,0.1516,0.159,0.1597,0.1566,0.1613,0.1594,0.1777,0.1802,0.1826,0.1837,0.1865,0.1544,0.1544,0.1544,0.1543,0,0.1451,0.1441,0.1434,0.1417,0.1422,0.1435,0.1429,0.1459,0.148,0.1512,0.1596,0.1607,0.1675,0.1661,0.163,0.1786,0.1745,0.1759,0.1773,0.1857,0.186,0.1888,0.1547,0.1546,0.1546,0.1545,0,0,0.1477,0.1439,0.1442,0.1459,0.1448,0.1456,0.1476,0.1526,0.1583,0.1621,0.1721,0.175,0.181,0.1823,0.1823,0.194,0.2089,0.1925,0.1931,0.1956,0.2337,0.2036,0.2036,0.2152,0.216,0.2165,0.2239,0,0.1495,0.1478,0.1458,0.1486,0.1491,0.1511,0.1537,0.1586,0.1632,0.1717,0.1794,0.1869,0.1849,0.1899,0.202,0.2083,0.218,0.2063,0.224,0.2244,0.1984,0.2067,0.1888,0.1919,0.2267,0.2271,0.2275,0,0.1488,0.1488,0.1506,0.1549,0.1558,0.158,0.1676,0.17,0.1801,0.1846,0.197,0.2013,0.2168,0.2137,0.2363,0.2293,0.2335,0.2376,0.2381,0.2128,0.1999,0.1909,0.1957,0.2321,0.2318,0.2314,0.2311,0,0.1516,0.153,0.1559,0.1566,0.1597,0.1649,0.1688,0.1771,0.182,0.1955,0.2017,0.2198,0.2279,0.2438,0.2469,0.2465,0.2676,0.2679,0.2442,0.2416,0.2313,0.2265,0.2874,0.2874,0.2874,0.2873,0.2873,0,0.1523,0.1551,0.1585,0.1598,0.1685,0.1697,0.18,0.1855,0.1947,0.2025,0.2109,0.2194,0.2377,0.2472,0.2536,0.253,0.2738,0.2484,0.2452,0.23,0.2253,0.266,0.2635,0.2876,0.2875,0.2875,0.2874,0,0.1525,0.153,0.1582,0.1653,0.1686,0.1753,0.1843,0.1902,0.1986,0.209,0.2139,0.2245,0.2354,0.2435,0.263,0.2555,0.2616,0.2551,0.2266,0.2197,0.2242,0.2218,0.2359,0.235,0.2342,0.2336,0.233,0,0.1518,0.1545,0.1632,0.167,0.1706,0.1797,0.1846,0.1925,0.1973,0.2105,0.2147,0.2251,0.226,0.2322,0.2285,0.2288,0.2432,0.2048,0.2014,0.2253,0.221,0.2197,0.2183,0.1879,0.187,0.1863,0.1858,0,0.1559,0.1595,0.1638,0.1692,0.1753,0.1819,0.1896,0.1914,0.1998,0.2027,0.2055,0.2068,0.2083,0.1954,0.1868,0.1864,0.2032,0.1889,0.2344,0.1971,0.179,0.1748,0.1755,0.1794,0.1801,0.1805,0.1809,0.1811,0.1618,0.1647,0.1686,0.172,0.178,0.1801,0.179,0.1839,0.1836,0.1804,0.189,0.1786,0.1779,0.1522,0.1465,0.1403,0.1576,0.1511,0.1542,0.1578,0.1444,0.1253,0.1126,0.1129,0.1131,0.1133,0.1134,0,0.1653,0.1663,0.1704,0.1702,0.1695,0.1776,0.1777,0.1712,0.1625,0.1586,0.1528,0.129,0.1151,0.1178,0.0977,0.0898,0.0995,0.0855,0.1019,0.1079,0.1133,0.0986,0.0542,0.0541,0.0539,0.0538,0,0,0.167,0.1671,0.1639,0.1594,0.1613,0.1583,0.1556,0.1464,0.1382,0.1164,0.1025,0.1042,0.1075,0.0786,0.0736,0.0616,0.0851,0.0567,0.1039,0.1292,0.1345,0.1496,0.1329,0,0,0,0,0]},{"header":{"parameterUnit":"m.s-1","parameterCategory":2,"la1":30.2991,"la2":30.254,"lo1":-89.0895,"lo2":-89.0444,"dy":0.0017,"dx":0.0017,"nx":28,"ny":28,"refTime":"2023-07-30T09:00:00:Z","depth":"2","parameterNumber":3,"parameterNumberName":"V-component_of_CURRENTS"},"data":[0,0,0,0,0,0,0,0,0,0,0,0,0,0,0,0,0,0,0,0,0,0,0,0,0,0,0,0,0,0,0,0,0,0,0,0,0,0,0,0,0,0,0,0,0,0,0,0,0,0,0,0,0,0,0,0,0,0,0.0004,0.0004,0,0.0004,0.0004,0.0004,-0.0016,-0.0016,-0.0016,-0.0016,-0.0045,-0.0046,-0.0046,0,0,0,0,0,0,0,0,0,0,0,0,0,-0.0008,-0.0008,0.0004,0.0004,0.0005,0.0004,0.0004,0.0004,-0.0016,-0.0016,-0.0016,-0.0017,-0.0045,-0.0046,-0.0047,0,0,0,0,0,0,0,0,0,0,0,0,0,-0.0008,-0.0008,0.0004,-0.0003,-0.0003,0.0004,0.0004,0.0004,-0.0016,-0.0016,-0.0016,-0.0017,-0.0045,-0.0046,-0.0047,-0.0045,0,0,-0.0049,-0.0049,0,0,0,0,0,0,0,0,-0.0008,-0.0008,-0.0002,-0.0002,-0.0003,-0.0003,-0.0011,-0.0013,-0.0016,-0.0014,-0.0016,-0.0017,-0.0032,-0.0034,-0.0037,-0.0046,-0.0047,-0.0049,-0.005,-0.005,-0.005,0,0,0,0,0,0,0,-0.0008,-0.0008,0.0001,-0.0002,-0.0002,-0.0004,-0.0005,-0.0011,-0.0024,-0.0014,-0.0015,-0.001,-0.0033,-0.0036,-0.0038,-0.0048,-0.0049,-0.005,-0.005,-0.0051,-0.009,-0.0091,0,0,0,0,0,0,-0.0001,-0.0008,0.0001,0.0001,-0.0003,-0.0003,-0.0004,-0.0005,-0.0023,-0.0025,-0.001,-0.0011,-0.0034,-0.0037,-0.0039,-0.0055,-0.005,-0.0051,-0.0051,-0.009,-0.009,-0.0091,0,0,0,0,0,0,-0.0002,-0.0001,0.0001,-0.0,0.0,-0.0002,-0.0004,-0.0005,-0.0007,-0.0019,-0.0022,-0.001,-0.0035,-0.0038,-0.0059,-0.0056,-0.0051,-0.0052,-0.0089,-0.009,-0.0091,-0.0077,0,0,0,0,0,0,-0.0002,-0.0001,-0.0005,-0.0,0.0001,0.0005,-0.0003,-0.0005,-0.0002,-0.0004,-0.002,-0.0023,-0.0035,-0.0058,-0.006,-0.0057,-0.0053,-0.0088,-0.0089,-0.009,-0.0077,-0.0077,-0.0078,0,0,0,0,0,-0.0003,-0.0003,-0.0005,-0.0004,-0.0003,0.0005,0.0005,0.0,-0.0002,-0.0004,-0.0024,-0.0023,-0.0065,-0.0059,-0.0061,-0.0059,-0.0088,-0.0089,-0.009,-0.0077,-0.0077,-0.0078,0,0,0,0,0,0,-0.0011,-0.0004,-0.0007,-0.0006,-0.0001,0.0003,0.0002,0.0004,-0.0012,-0.0019,-0.0031,-0.0036,-0.0054,-0.0061,-0.0053,-0.0075,-0.0076,-0.0077,-0.0064,-0.0065,-0.0065,-0.0005,-0.0053,0,0,0,0,0,-0.0013,-0.0014,-0.0005,-0.0006,-0.0001,0.0001,0.0003,0.0001,-0.0007,-0.0014,-0.0027,-0.0045,-0.006,-0.0066,-0.0084,-0.0092,-0.0045,-0.0093,-0.0093,-0.0093,-0.0048,0.0038,0.0052,-0.0095,-0.0095,-0.0095,0,0,-0.0018,-0.0013,-0.0014,-0.0007,-0.0006,-0.0006,0.0,0.0004,0.0003,-0.0015,-0.003,-0.0048,-0.0065,-0.0082,-0.009,-0.0086,-0.0041,-0.0095,-0.0095,-0.0048,0.0039,0.0054,0.0068,-0.0096,-0.0096,-0.0096,0,0,-0.0021,-0.0021,-0.0021,-0.0019,-0.0012,-0.001,-0.0006,-0.0005,-0.0004,-0.0021,-0.0034,-0.003,-0.0077,-0.0063,-0.0068,-0.0074,-0.005,-0.0109,-0.0054,0.0027,0.0041,0.0055,0.0085,0.0102,-0.0104,-0.0104,-0.0104,0,-0.0029,-0.0029,-0.0019,-0.002,-0.0017,-0.0011,-0.001,-0.0008,-0.0016,0.0012,-0.0029,-0.0025,-0.0051,-0.0016,-0.0038,-0.0066,-0.004,-0.0052,0.0032,0.0047,0.0061,0.0089,0.0107,-0.0104,-0.0104,-0.0104,-0.0104,0,-0.003,-0.0037,-0.0035,-0.0036,-0.003,-0.003,-0.0019,-0.0006,-0.001,0.001,0.0039,0.0013,0.0036,0.0005,-0.0028,0.0048,0.0024,0.002,0.0045,0.0078,0.0102,0.0121,-0.0103,-0.0103,-0.0103,-0.0103,0,0,-0.0033,-0.0037,-0.0038,-0.0031,-0.0039,-0.0021,-0.0012,0.0031,0.0088,0.0068,0.0148,0.0105,0.0128,0.0126,0.01,0.0156,0.0233,0.012,0.0124,0.0171,0.0377,0.0282,0.0292,0.024,0.0244,0.0247,0.0339,0,-0.004,-0.004,-0.0041,-0.0035,-0.003,-0.0012,0.0014,0.0059,0.0092,0.0168,0.0195,0.0231,0.0161,0.0171,0.0221,0.0246,0.029,0.0207,0.0324,0.0327,0.0258,0.0315,0.0291,0.0366,0.0358,0.0361,0.0363,0,-0.0041,-0.0037,-0.0041,-0.0001,0.0009,0.0012,0.0102,0.0126,0.0235,0.0268,0.0335,0.0356,0.0429,0.0359,0.0461,0.0404,0.0396,0.0407,0.041,0.0348,0.027,0.034,0.0401,0.0395,0.0392,0.039,0.0388,0,-0.0029,-0.0026,-0.0023,-0.0023,0.0012,0.0038,0.0069,0.0163,0.0234,0.0342,0.0415,0.0499,0.0556,0.0588,0.0573,0.053,0.0687,0.0636,0.0546,0.0537,0.056,0.0545,0.0728,0.0728,0.0727,0.0727,0.0727,0,-0.003,-0.0022,-0.0016,-0.0014,0.005,0.0056,0.0154,0.0209,0.0317,0.0442,0.0466,0.058,0.0621,0.0696,0.0657,0.0663,0.0756,0.0592,0.058,0.055,0.0535,0.06,0.0585,0.0731,0.073,0.0729,0.0729,0,-0.002,-0.0032,-0.0005,0.0027,0.0049,0.0097,0.0198,0.0297,0.0357,0.0521,0.0556,0.0685,0.0769,0.0777,0.0852,0.0774,0.0781,0.0746,0.0674,0.065,0.055,0.0533,0.0685,0.0683,0.0682,0.068,0.0679,0,-0.002,-0.0017,0.0034,0.0083,0.0094,0.0164,0.0248,0.0316,0.0426,0.0592,0.0697,0.0803,0.0894,0.0936,0.0851,0.0788,0.0781,0.0688,0.0603,0.0586,0.0559,0.0544,0.053,0.0624,0.0622,0.0621,0.062,0,0.0,0.0013,0.0054,0.0148,0.0222,0.0319,0.0423,0.0515,0.0627,0.0751,0.0922,0.0985,0.0984,0.0934,0.08,0.0741,0.0692,0.0654,0.0744,0.0605,0.0527,0.0499,0.0489,0.0609,0.061,0.0611,0.0611,0.0612,0.0036,0.0084,0.0148,0.025,0.0347,0.0474,0.0559,0.068,0.0843,0.0996,0.1054,0.1086,0.1,0.0803,0.0717,0.0593,0.0605,0.0537,0.0543,0.055,0.0494,0.0414,0.0462,0.0462,0.0462,0.0463,0.0463,0,0.0098,0.0161,0.0258,0.0389,0.0517,0.0527,0.0697,0.0771,0.095,0.103,0.1116,0.0988,0.0895,0.0771,0.0563,0.0449,0.0462,0.0416,0.0461,0.0472,0.0482,0.0424,0.0373,0.0373,0.0372,0.0372,0,0,0.0145,0.0253,0.0312,0.0523,0.0604,0.0729,0.0812,0.0902,0.0956,0.1041,0.1017,0.1,0.0855,0.0689,0.0575,0.0463,0.0485,0.0437,0.0516,0.0593,0.0604,0.0555,0.0476,0,0,0,0,0]}],[{"header":{"parameterUnit":"m.s-1","parameterCategory":2,"la1":30.2991,"la2":30.254,"lo1":-89.0895,"lo2":-89.0444,"dy":0.0017,"dx":0.0017,"nx":28,"ny":28,"refTime":"2023-07-30T09:00:00:Z","depth":"4","parameterNumber":2,"parameterNumberName":"U-component_of_CURRENTS"},"data":[0,0,0,0,0,0,0,0,0,0,0,0,0,0,0,0,0,0,0,0,0,0,0,0,0,0,0,0,0,0,0,0,0,0,0,0,0,0,0,0,0,0,0,0,0,0,0,0,0,0,0,0,0,0,0,0,0,0,0.0226,0.0226,0,0.0246,0.0247,0.0247,0.0308,0.031,0.0311,0.0312,0.0351,0.0351,0.0351,0,0,0,0,0,0,0,0,0,0,0,0,0,0.0352,0.0349,0.0226,0.0226,0.0226,0.0246,0.0247,0.0247,0.0308,0.031,0.0311,0.0312,0.0351,0.0351,0.0351,0,0,0,0,0,0,0,0,0,0,0,0,0,0.0329,0.0348,0.0226,0.0257,0.026,0.0246,0.0247,0.0247,0.0308,0.031,0.0311,0.0313,0.0351,0.0351,0.0351,0.0318,0,0,0.0351,0.0351,0,0,0,0,0,0,0,0,0.033,0.0325,0.0253,0.0255,0.0258,0.0274,0.0305,0.0271,0.0308,0.0292,0.0312,0.0314,0.0324,0.0327,0.033,0.032,0.0321,0.0351,0.0351,0.0351,0.0351,0,0,0,0,0,0,0,0.0331,0.0325,0.0237,0.0252,0.0256,0.0308,0.0306,0.03,0.0301,0.0294,0.0298,0.0295,0.0327,0.033,0.0331,0.0322,0.0351,0.0351,0.0351,0.0351,0.0342,0.0342,0,0,0,0,0,0,0.0315,0.0325,0.0236,0.0237,0.0296,0.0304,0.0302,0.027,0.0301,0.0306,0.0294,0.0298,0.0329,0.0331,0.0333,0.0325,0.0351,0.0351,0.0351,0.0342,0.0342,0.0342,0,0,0,0,0,0,0.0317,0.0306,0.0235,0.0282,0.0277,0.0299,0.0263,0.0269,0.028,0.03,0.0307,0.03,0.033,0.0333,0.0325,0.0326,0.0351,0.0351,0.0343,0.0342,0.0342,0.0289,0,0,0,0,0,0,0.032,0.0306,0.0294,0.0279,0.0273,0.0212,0.0261,0.0268,0.0275,0.0281,0.0307,0.0312,0.0332,0.0325,0.0325,0.0326,0.0351,0.0343,0.0343,0.0342,0.0291,0.0287,0.0283,0,0,0,0,0,0.0324,0.0284,0.0292,0.0283,0.0248,0.021,0.0211,0.0237,0.0273,0.0259,0.0286,0.0312,0.0324,0.0324,0.0324,0.0326,0.0343,0.0343,0.0342,0.0293,0.0288,0.0283,0,0,0,0,0,0,0.0335,0.0286,0.0295,0.0244,0.0226,0.022,0.0217,0.0233,0.0243,0.0262,0.0291,0.0296,0.0297,0.0312,0.0311,0.0324,0.0344,0.0344,0.0307,0.0302,0.0298,0.0377,0.0351,0,0,0,0,0,0.0328,0.0285,0.0255,0.0218,0.0207,0.0215,0.0212,0.0221,0.0223,0.0232,0.0249,0.0276,0.0292,0.0296,0.0309,0.0297,0.0348,0.0305,0.0301,0.0298,0.0363,0.0447,0.0457,0.034,0.034,0.034,0,0,0.032,0.0292,0.0268,0.0218,0.0215,0.0181,0.0218,0.0199,0.0185,0.0231,0.0226,0.0256,0.0286,0.0285,0.0288,0.0298,0.0335,0.0297,0.0293,0.0363,0.0448,0.046,0.047,0.034,0.034,0.034,0,0,0.0271,0.0259,0.0205,0.0185,0.0163,0.0164,0.0154,0.0143,0.0157,0.0142,0.019,0.0238,0.0222,0.0275,0.0293,0.0277,0.0313,0.0257,0.0299,0.0376,0.0388,0.0399,0.0384,0.0395,0.0254,0.0254,0.0254,0,0.0276,0.0196,0.0188,0.0138,0.0131,0.015,0.011,0.0109,0.0102,0.0153,0.0133,0.0218,0.0237,0.0295,0.0301,0.0275,0.0293,0.0306,0.0374,0.0387,0.04,0.0383,0.0396,0.0251,0.0251,0.0252,0.0252,0,0.0178,0.0133,0.0103,0.0049,0.0042,0.0007,0.0008,0.003,0.0059,0.0097,0.0161,0.0184,0.0276,0.0253,0.0276,0.0371,0.0339,0.0357,0.039,0.0409,0.0388,0.0402,0.0247,0.0248,0.0249,0.025,0,0,0.0148,0.0052,0.0044,0.0036,-0.0001,-0.0005,-0.0008,0.0033,0.0113,0.0103,0.0188,0.0231,0.0318,0.0351,0.0371,0.0428,0.0494,0.0438,0.0443,0.0429,0.06,0.0523,0.053,0.0519,0.0523,0.0527,0.0515,0,0.0084,-0.0033,-0.0047,-0.0089,-0.0131,-0.0072,-0.0046,0.0018,0.008,0.0165,0.023,0.031,0.0321,0.0381,0.0445,0.0497,0.0546,0.0493,0.0584,0.0586,0.0523,0.0552,0.0541,0.0525,0.0529,0.0531,0.0533,0,-0.0002,-0.0061,-0.0152,-0.0111,-0.0108,-0.0087,0.0046,0.007,0.021,0.0265,0.0372,0.0424,0.0521,0.0514,0.0632,0.0592,0.0634,0.0643,0.0643,0.0631,0.0541,0.0528,0.056,0.0558,0.0556,0.0554,0.0552,0,-0.0039,-0.01,-0.0163,-0.0175,-0.0151,-0.0076,0.0003,0.0147,0.0219,0.0361,0.0433,0.0536,0.0608,0.0667,0.072,0.0693,0.0814,0.0771,0.0723,0.0712,0.0807,0.0797,0.0899,0.0899,0.0899,0.09,0.09,0,-0.0109,-0.0138,-0.0154,-0.0188,-0.0103,-0.0055,0.0086,0.0195,0.0328,0.0425,0.0519,0.0576,0.0671,0.0735,0.0747,0.0776,0.085,0.0767,0.0741,0.0765,0.0751,0.0811,0.08,0.0899,0.0899,0.0899,0.0899,0,-0.0153,-0.0207,-0.0239,-0.0195,-0.0137,-0.0052,0.0132,0.0231,0.037,0.0478,0.052,0.0648,0.0716,0.0762,0.0851,0.0828,0.0842,0.0845,0.0828,0.0795,0.0657,0.0644,0.0757,0.0755,0.0753,0.0752,0.0751,0,-0.0203,-0.0254,-0.0235,-0.019,-0.0148,-0.0015,0.0087,0.0242,0.0314,0.0494,0.0518,0.0652,0.071,0.0754,0.0806,0.0804,0.0816,0.0809,0.0787,0.0698,0.0661,0.0651,0.064,0.0748,0.0748,0.0747,0.0747,0,-0.0267,-0.0271,-0.0282,-0.0207,-0.0105,-0.0018,0.0129,0.0174,0.0324,0.0426,0.0526,0.0591,0.0667,0.0706,0.0752,0.0743,0.0795,0.0791,0.0794,0.0772,0.0688,0.0651,0.0643,0.0741,0.0742,0.0742,0.0743,0,-0.0274,-0.0272,-0.0281,-0.0178,-0.0099,-0.0028,0.0053,0.0151,0.0243,0.0414,0.0429,0.0551,0.0648,0.0674,0.0686,0.0701,0.0674,0.0653,0.0662,0.0669,0.0653,0.0533,0.0552,0,0,0,0,0,-0.0277,-0.0271,-0.0225,-0.0151,-0.0096,-0.0038,0.0069,0.0128,0.0237,0.029,0.0371,0.0426,0.0506,0.0559,0.0552,0.0612,0.0656,0.06,0.063,0.0709,0.0715,0.0706,0,0,0,0,0,0,-0.0274,-0.0266,-0.0244,-0.0169,-0.0115,-0.0047,0.0008,0.0085,0.0119,0.0234,0.0275,0.0375,0.0445,0.0495,0.0534,0.0548,0.0552,0.0665,0.0664,0.0705,0.0711,0.0716,0.0709,0,0,0,0,0]},{"header":{"parameterUnit":"m.s-1","parameterCategory":2,"la1":30.2991,"la2":30.254,"lo1":-89.0895,"lo2":-89.0444,"dy":0.0017,"dx":0.0017,"nx":28,"ny":28,"refTime":"2023-07-30T09:00:00:Z","depth":"4","parameterNumber":3,"parameterNumberName":"V-component_of_CURRENTS"},"data":[0,0,0,0,0,0,0,0,0,0,0,0,0,0,0,0,0,0,0,0,0,0,0,0,0,0,0,0,0,0,0,0,0,0,0,0,0,0,0,0,0,0,0,0,0,0,0,0,0,0,0,0,0,0,0,0,0,0,0.0137,0.0137,0,0.0177,0.0177,0.0178,0.017,0.0169,0.0169,0.0168,0.015,0.0151,0.0151,0,0,0,0,0,0,0,0,0,0,0,0,0,0.0078,0.0079,0.0137,0.0137,0.0138,0.0177,0.0177,0.0178,0.017,0.0169,0.0168,0.0168,0.015,0.015,0.0151,0,0,0,0,0,0,0,0,0,0,0,0,0,0.0109,0.0079,0.0136,0.0139,0.0139,0.0177,0.0177,0.0178,0.017,0.0169,0.0168,0.0167,0.015,0.015,0.0151,0.0173,0,0,0.0152,0.0152,0,0,0,0,0,0,0,0,0.0107,0.0111,0.0138,0.0139,0.0139,0.0168,0.015,0.0174,0.017,0.0158,0.0168,0.0167,0.0152,0.0152,0.0162,0.0172,0.0171,0.0152,0.0152,0.0152,0.0152,0,0,0,0,0,0,0,0.0105,0.0109,0.0152,0.0139,0.014,0.0146,0.0149,0.0155,0.0159,0.0159,0.0159,0.0164,0.0152,0.0162,0.0161,0.0171,0.0152,0.0152,0.0152,0.0152,0.0195,0.0196,0,0,0,0,0,0,0.0101,0.0107,0.0151,0.0153,0.0121,0.0148,0.0152,0.0159,0.016,0.016,0.0165,0.0164,0.0162,0.0161,0.0161,0.0201,0.0152,0.0152,0.0152,0.0194,0.0195,0.0196,0,0,0,0,0,0,0.0099,0.0104,0.0149,0.0131,0.0137,0.015,0.0159,0.0161,0.0175,0.0165,0.0163,0.0178,0.0161,0.016,0.0172,0.02,0.0152,0.0152,0.0193,0.0194,0.0196,0.0273,0,0,0,0,0,0,0.0098,0.0104,0.0109,0.0131,0.0138,0.0177,0.016,0.0162,0.018,0.0178,0.0176,0.0173,0.016,0.0171,0.0172,0.0199,0.0153,0.0192,0.0193,0.0195,0.0269,0.0277,0.0284,0,0,0,0,0,0.0095,0.0114,0.011,0.0115,0.0145,0.0178,0.0183,0.0187,0.0181,0.0195,0.0191,0.0173,0.0183,0.0173,0.0173,0.0201,0.0191,0.0193,0.0195,0.0266,0.0276,0.0284,0,0,0,0,0,0,0.0096,0.0116,0.0111,0.0135,0.0154,0.0177,0.0192,0.0196,0.0207,0.0202,0.0189,0.0187,0.0212,0.0193,0.0181,0.0217,0.0183,0.0185,0.0237,0.0246,0.0253,0.0231,0.0153,0,0,0,0,0,0.0098,0.0113,0.0133,0.0151,0.0163,0.0178,0.0192,0.0197,0.0209,0.0213,0.0216,0.0213,0.0223,0.0222,0.0228,0.0246,0.0198,0.0262,0.0269,0.0275,0.0257,0.0205,0.0205,0.0204,0.0203,0.0203,0,0,0.0104,0.0116,0.0124,0.0152,0.0166,0.0205,0.0184,0.0211,0.0246,0.0209,0.0254,0.0245,0.0235,0.0261,0.0268,0.0246,0.0256,0.0278,0.0284,0.0261,0.0207,0.0207,0.0207,0.0205,0.0205,0.0205,0,0,0.0133,0.0134,0.0161,0.0184,0.0209,0.0223,0.0234,0.0263,0.0275,0.0315,0.0297,0.029,0.0323,0.0305,0.0304,0.0349,0.0302,0.0365,0.0378,0.0329,0.0328,0.0327,0.0287,0.0281,0.0361,0.0361,0.0361,0,0.0136,0.0179,0.0175,0.0214,0.0242,0.0237,0.0285,0.0304,0.0334,0.0334,0.0338,0.0337,0.034,0.0332,0.0361,0.0364,0.0331,0.0351,0.0337,0.0335,0.0331,0.0291,0.0283,0.0365,0.0365,0.0364,0.0364,0,0.0195,0.0231,0.0253,0.03,0.0324,0.0365,0.0389,0.0408,0.0421,0.0425,0.0424,0.0408,0.0394,0.0407,0.041,0.0392,0.0376,0.036,0.0313,0.0336,0.0292,0.0283,0.0371,0.0369,0.0368,0.0367,0,0,0.0195,0.0279,0.0287,0.0322,0.0375,0.0399,0.0449,0.0477,0.0481,0.0492,0.0477,0.05,0.0455,0.0448,0.0426,0.0386,0.0367,0.0376,0.0372,0.0333,0.0265,0.03,0.0293,0.0352,0.035,0.0349,0.0251,0,0.0244,0.0333,0.0364,0.0447,0.0493,0.0506,0.0549,0.0561,0.0558,0.054,0.0488,0.0481,0.0483,0.0468,0.043,0.0377,0.0343,0.0395,0.0251,0.0246,0.0271,0.0283,0.0344,0.0244,0.0241,0.024,0.0238,0,0.0293,0.0346,0.0448,0.0512,0.0532,0.0594,0.0618,0.065,0.0614,0.0595,0.0541,0.0496,0.0442,0.0437,0.0335,0.0371,0.0332,0.0283,0.0278,0.0268,0.0263,0.021,0.0221,0.0222,0.0223,0.0225,0.0226,0,0.0291,0.0395,0.0481,0.0514,0.0595,0.0645,0.0682,0.0678,0.0673,0.0622,0.059,0.0501,0.0471,0.0379,0.0323,0.0325,0.0197,0.018,0.0163,0.0164,0.0126,0.0128,0.0102,0.0102,0.0102,0.0102,0.0103,0,0.0335,0.0391,0.0504,0.0552,0.0632,0.0679,0.0722,0.0732,0.0703,0.0674,0.0625,0.0564,0.0463,0.0384,0.0304,0.0217,0.0188,0.0157,0.0138,0.0166,0.0173,0.012,0.0123,0.0099,0.01,0.01,0.0101,0,0.033,0.0409,0.0496,0.0606,0.0646,0.0706,0.0762,0.075,0.076,0.0712,0.0698,0.0617,0.0521,0.0417,0.0274,0.0227,0.0112,0.0096,0.0144,0.013,0.0107,0.0116,0.0028,0.0028,0.0028,0.0028,0.0029,0,0.0344,0.0397,0.052,0.057,0.0645,0.0724,0.0745,0.0772,0.0746,0.0731,0.0685,0.0626,0.0557,0.0372,0.0274,0.0114,0.0111,0.0068,0.0073,0.0107,0.0097,0.0105,0.0114,0.0029,0.0029,0.0029,0.0029,0,0.0345,0.0395,0.0459,0.0553,0.0625,0.0673,0.0723,0.0713,0.0721,0.0719,0.0662,0.0592,0.0494,0.0357,0.0278,0.0155,0.009,0.007,0.0068,0.0072,0.0108,0.01,0.0107,0.003,0.003,0.003,0.003,0,0.0326,0.036,0.0433,0.0523,0.0594,0.064,0.0666,0.066,0.0656,0.0656,0.0629,0.0551,0.0509,0.0378,0.0272,0.0191,0.0153,0.0128,0.0122,0.012,0.0191,0.0253,0.0196,0,0,0,0,0,0.0308,0.0332,0.0385,0.0485,0.0549,0.0606,0.064,0.0649,0.0666,0.062,0.0637,0.054,0.0428,0.0362,0.0279,0.026,0.0135,0.0162,0.0102,0.0036,0.0035,0.0108,0,0,0,0,0,0,0.0288,0.0332,0.0361,0.0436,0.05,0.0562,0.0603,0.0617,0.0588,0.0603,0.0522,0.0528,0.0389,0.0471,0.0278,0.0256,0.021,0.011,0.0109,0.0036,0.0035,0.0034,0.011,0,0,0,0,0]}]]